Regional Weather Roundup
Issued by NWS

Home | Current Version | Previous Version | Text Only | Print | Product List | Glossary Off
Versions: 1 2 3 4 5 6 7 8 9 10 11 12 13 14 15 16 17 18 19 20 21 22 23 24 25 26 27 28 29 30 31 32 33 34 35 36 37 38 39 40 41 42 43 44 45 46 47 48 49 50

000
ASUS43 KBIS 200710
RWRND

NORTH DAKOTA REGIONAL WEATHER ROUNDUP
NATIONAL WEATHER SERVICE BISMARCK ND
200 AM CDT SUN APR 20 2014

NOTE: "FAIR" INDICATES FEW OR NO CLOUDS BELOW 12,000 FEET WITH NO
SIGNIFICANT WEATHER AND/OR OBSTRUCTIONS TO VISIBILITY.


NDZ001>003-009>011-017-200800-
NORTHWEST NORTH DAKOTA

CITY           SKY/WX    TMP DP  RH WIND       PRES   REMARKS
WILLISTON      PTCLDY    32  28  85 CALM      29.92S
MINOT          CLEAR     37  31  78 S7        29.95S
MINOT AFB      PTCLDY    35  34  94 S8        29.94S
$$

NDZ018>021-031>035-040>046-200800-
SOUTHWEST NORTH DAKOTA

CITY           SKY/WX    TMP DP  RH WIND       PRES   REMARKS
BISMARCK       CLEAR     38  32  79 E7        30.00R
DICKINSON      CLEAR     33  23  66 S10       29.94R
GARRISON         N/A     34  30  85 E5        29.96S
HETTINGER ARPT CLEAR     27  22  81 NW3       29.98S
$$

NDZ004>008-012>016-024-026-027-054-200800-
NORTHEAST NORTH DAKOTA

CITY           SKY/WX    TMP DP  RH WIND       PRES   REMARKS
GRAND FORKS    CLEAR     32  30  92 W3        30.01S
GRND FRKS AFB  CLEAR     32  32  99 NW3       30.01F
DEVILS LAKE    CLEAR     32  27  80 CALM      29.99R
$$

NDZ022-023-025-028>030-036>039-047>053-200800-
SOUTHEAST NORTH DAKOTA

CITY           SKY/WX    TMP DP  RH WIND       PRES   REMARKS
FARGO          CLEAR     37  33  85 NE3       30.02S
JAMESTOWN      CLEAR     34  33  96 CALM      30.01R
$$




USA.gov is the U.S. government's official web portal to all federal, state and local government web resources and services.